Point Lay, AK

2:07 AM AKST on December 12, 2017 (GMT -0900)
Point Lay

Weather History for PPIZ - February, 2013

Change the Weather History Date:

Saturday, February 16, 2013

  Actual Average Record
Temperature  
Mean Temperature -22 °F -  
Max Temperature -17 °F -11 °F 30 °F (2006)
Min Temperature -28 °F -20 °F -36 °F (2017)
Degree Days  
Heating Degree Days 88    
Moisture  
Dew Point -30 °F    
Average Humidity 72    
Maximum Humidity 76    
Minimum Humidity 69    
Precipitation  
Precipitation 0.00 in - - ()
Sea Level Pressure  
Sea Level Pressure 30.39 in    
Wind  
Wind Speed 10 mph (NE)    
Max Wind Speed 17 mph    
Max Gust Speed -    
Visibility 10 miles    
Events      
Averages and records for this station are not official NWS values.
T = Trace of Precipitation, MM = Missing Value Source: NWS Daily Summary

Daily Weather History Graph

Daily Weather History Graph

Search for Another Location

Airport or City:

Trip Planner

Search our weather history database for the weather conditions in past years. The results will help you decide how hot, cold, wet, or windy it might be!

Date:

Astronomy

Feb. 16, 2013 Rise Set
Actual Time 10:15 AM AKST 5:57 PM AKST
Civil Twilight 9:09 AM AKST 7:04 PM AKST
Nautical Twilight 7:58 AM AKST 8:15 PM AKST
Astronomical Twilight 6:48 AM AKST 9:25 PM AKST
Moon 9:15 AM AKST (2/16) 4:23 AM AKST (2/16)
Length of Visible Light 9h 55m
Length of Day
7h 42m
Waxing Crescent, 41% of the Moon is Illuminated
Feb 16
Waxing Crescent
Feb 17
First Quarter
Feb 25
Full
Mar 4
Last Quarter
Mar 11
New

Hourly Weather History & Observations

Time (AKST) Temp. Windchill Dew Point Humidity Pressure Visibility Wind Dir Wind Speed Gust Speed Precip Events Conditions
12:56 AM -17.9 °F -43.0 °F -24.0 °F 74% 30.29 in - NE 16.1 mph - N/A   Overcast
1:56 AM -18.9 °F -42.8 °F -24.9 °F 74% 30.30 in - ENE 13.8 mph - N/A   Mostly Cloudy
2:56 AM -18.9 °F -44.4 °F -24.9 °F 74% 30.31 in - NE 16.1 mph - N/A   Mostly Cloudy
3:56 AM -18.9 °F -41.8 °F -24.9 °F 74% 30.32 in - NE 12.7 mph - N/A   Overcast
4:56 AM -19.8 °F -42.0 °F -26.0 °F 73% 30.33 in - ENE 11.5 mph - N/A   Mostly Cloudy
5:35 AM -20.2 °F -40.1 °F -27.4 °F 69% 30.33 in - NE 9.2 mph - N/A   Mostly Cloudy
5:56 AM -20.9 °F -41.0 °F -26.9 °F 74% 30.35 in - NE 9.2 mph - N/A   Mostly Cloudy
6:09 AM -20.2 °F -37.3 °F -27.4 °F 69% 30.33 in - NE 6.9 mph - N/A   Clear
6:56 AM -22.0 °F -42.3 °F -28.8 °F 71% 30.35 in 10.0 mi NE 9.2 mph - N/A   Clear
7:56 AM -22.9 °F -36.6 °F -28.8 °F 74% 30.36 in 10.0 mi NE 4.6 mph - N/A   Clear
8:56 AM -22.0 °F -47.5 °F -27.9 °F 74% 30.36 in 10.0 mi East 15.0 mph - N/A   Mostly Cloudy
9:37 AM -22.0 °F -47.5 °F -27.4 °F 76% 30.35 in 10.0 mi East 15.0 mph - N/A   Partly Cloudy
9:56 AM -22.0 °F -49.1 °F -27.9 °F 74% 30.37 in 10.0 mi ENE 17.3 mph - N/A   Clear
10:56 AM -22.9 °F -40.5 °F -29.9 °F 70% 30.39 in 6.0 mi NNE 6.9 mph - N/A   Haze
11:12 AM -23.8 °F -41.6 °F -29.2 °F 76% 30.38 in 6.0 mi NNE 6.9 mph - N/A   Haze
11:56 AM -24.0 °F -41.8 °F -29.9 °F 74% 30.40 in 10.0 mi NNE 6.9 mph - N/A   Overcast
12:21 PM -23.8 °F -41.6 °F -29.2 °F 76% 30.39 in 10.0 mi NNE 6.9 mph - N/A   Scattered Clouds
12:56 PM -24.0 °F -37.9 °F -31.0 °F 70% 30.42 in 10.0 mi NNE 4.6 mph - N/A   Mostly Cloudy
1:09 PM -23.8 °F -39.8 °F -31.0 °F 69% 30.40 in 10.0 mi NNE 5.8 mph - N/A   Scattered Clouds
1:56 PM -24.0 °F -37.9 °F -29.9 °F 74% 30.43 in 10.0 mi NNE 4.6 mph - N/A   Clear
2:56 PM -22.9 °F -38.7 °F -28.8 °F 74% 30.42 in 10.0 mi NNE 5.8 mph - N/A   Clear
3:56 PM -24.0 °F - -29.9 °F 74% 30.43 in 10.0 mi Calm Calm - N/A   Clear
4:56 PM -24.9 °F - -31.0 °F 73% 30.43 in 10.0 mi Calm Calm - N/A   Clear
5:56 PM -26.9 °F - -33.9 °F 69% 30.44 in 10.0 mi Calm Calm - N/A   Clear
6:56 PM -26.9 °F - -33.9 °F 69% 30.45 in 10.0 mi Calm Calm - N/A   Clear
7:56 PM -26.0 °F - -33.0 °F 69% 30.46 in 10.0 mi Calm Calm - N/A   Clear
8:56 PM -28.8 °F - -35.9 °F 69% 30.46 in 10.0 mi Calm Calm - N/A   Clear
9:56 PM -28.8 °F - -35.9 °F 69% 30.47 in 10.0 mi Calm Calm - N/A   Clear
10:56 PM -28.8 °F - -35.9 °F 69% 30.47 in 10.0 mi Calm Calm - N/A   Clear
11:56 PM -28.8 °F - -35.9 °F 69% 30.48 in 10.0 mi Calm Calm - N/A   Clear